Stations météo

réclame
Mon MeteoGroup
Reus, Espagne (8175): Température de l'air & dewpoint: 16.10.2017 01:00:00 - 22.10.2017 01:00:00 (CEST)Reus, Espagne (8175): Vitesse du vent: 16.10.2017 01:00:00 - 22.10.2017 01:00:00 (CEST)Reus, Espagne (8175): Direction du vent: 16.10.2017 01:00:00 - 22.10.2017 01:00:00 (CEST)Reus, Espagne (8175): reduced air pressure: 16.10.2017 01:00:00 - 22.10.2017 01:00:00 (CEST)Reus, Espagne (8175): visibility: 16.10.2017 01:00:00 - 22.10.2017 01:00:00 (CEST)
Date & Time tt [°C] td [°C] ff [km/h] ff [knt] dd ppp [hPa] vv [km]
22.10.2017 01:00:00 - - - - - - -
22.10.2017 00:00:00 19,1 10,9 22 12 W 1022,6 30
21.10.2017 23:00:00 20,1 14,0 18 10 NW 1022,1 30
21.10.2017 22:00:00 18,8 17,2 8 4 NW 1021,5 18
21.10.2017 21:00:00 19,2 17,9 5 3 NNE 1020,9 9
21.10.2017 20:00:00 19,9 18,3 0 0 N 1020,6 30
21.10.2017 19:00:00 20,7 18,4 2 1 S 1020,1 23
21.10.2017 18:00:00 21,8 18,5 11 6 SSW 1019,9 30
21.10.2017 17:00:00 23,3 17,4 13 7 S 1019,5 30
21.10.2017 16:00:00 24,1 18,1 16 9 S 1019,1 30
21.10.2017 15:00:00 24,8 16,8 15 8 S 1019,3 28
21.10.2017 14:00:00 25,3 16,4 8 4 E 1019,9 30
21.10.2017 13:00:00 24,3 15,8 11 6 E 1020,6 30
21.10.2017 12:00:00 23,1 14,8 2 1 ESE 1020,9 11
21.10.2017 11:00:00 20,1 13,7 0 0 N 1021,0 30
21.10.2017 10:00:00 17,7 14,1 4 2 ENE 1021,0 30
21.10.2017 09:00:00 13,8 12,6 4 2 N 1020,6 30
21.10.2017 08:00:00 12,9 11,9 0 0 N 1020,2 30
21.10.2017 07:00:00 12,9 11,9 4 2 N 1020,1 30
21.10.2017 06:00:00 13,1 12,1 4 2 N 1019,7 30
21.10.2017 05:00:00 13,6 12,5 4 2 N 1019,8 30
21.10.2017 04:00:00 14,0 13,0 8 4 NNE 1020,4 30
21.10.2017 03:00:00 14,6 13,1 9 5 N 1020,8 30
21.10.2017 02:00:00 14,8 13,7 9 5 NNE 1020,7 30
21.10.2017 01:00:00 15,2 14,1 11 6 N 1020,9 18
21.10.2017 00:00:00 14,9 13,7 2 1 NE 1021,2 10
20.10.2017 23:00:00 16,3 15,1 11 6 NW 1021,2 23
20.10.2017 22:00:00 16,7 15,4 8 4 NNW 1020,9 15
20.10.2017 21:00:00 17,5 16,0 11 6 NW 1020,4 15
20.10.2017 20:00:00 18,4 16,2 4 2 W 1019,8 30
20.10.2017 19:00:00 20,2 16,5 4 2 S 1019,1 19
20.10.2017 18:00:00 21,5 16,5 4 2 ESE 1018,7 16
20.10.2017 17:00:00 22,6 16,3 11 6 SSE 1018,6 30
20.10.2017 16:00:00 22,6 15,3 9 5 SE 1018,6 30
20.10.2017 15:00:00 23,0 15,6 4 2 SSE 1018,4 30
20.10.2017 14:00:00 22,9 15,8 11 6 SSE 1018,7 30
20.10.2017 13:00:00 22,3 15,4 8 4 SE 1018,9 30
20.10.2017 12:00:00 21,1 14,1 8 4 W 1018,8 30
20.10.2017 11:00:00 18,6 13,7 8 4 N 1018,3 30
20.10.2017 10:00:00 17,0 13,6 2 1 N 1017,5 30
20.10.2017 09:00:00 16,2 13,4 8 4 NE 1016,9 9
20.10.2017 08:00:00 15,5 13,6 4 2 NNW 1015,9 30
20.10.2017 07:00:00 15,4 13,8 5 3 NNE 1015,0 30
20.10.2017 06:00:00 14,7 13,5 4 2 NNW 1014,4 30
20.10.2017 05:00:00 14,7 13,7 2 1 NE 1013,8 30
20.10.2017 04:00:00 15,0 13,8 4 2 WNW 1013,4 30
20.10.2017 03:00:00 15,2 14,0 5 3 NNW 1013,2 30
20.10.2017 02:00:00 15,1 13,4 11 6 N 1012,9 30
20.10.2017 01:00:00 16,1 13,6 11 6 N 1012,2 30
20.10.2017 00:00:00 16,2 13,6 5 3 N 1011,8 30
19.10.2017 23:00:00 17,3 13,6 18 10 N 1010,6 30
19.10.2017 22:00:00 17,6 14,0 22 12 N 1009,9 30
19.10.2017 21:00:00 15,2 13,7 15 8 S 1008,9 19
19.10.2017 20:00:00 15,1 13,7 11 6 WSW 1008,4 30
19.10.2017 19:00:00 15,5 13,5 8 4 WNW 1008,5 7
19.10.2017 18:00:00 16,8 12,5 16 9 W 1008,3 30
19.10.2017 17:00:00 16,7 13,2 15 8 W 1008,5 30
19.10.2017 16:00:00 16,4 14,1 13 7 W 1008,8 30
19.10.2017 15:00:00 15,0 13,8 4 2 S 1010,0 9
19.10.2017 14:00:00 14,4 13,1 11 6 NW 1010,0 14
19.10.2017 13:00:00 16,3 12,8 8 4 NE 1010,6 30
19.10.2017 12:00:00 17,1 11,1 5 3 N 1010,8 30
19.10.2017 11:00:00 16,2 11,7 4 2 W 1011,2 28
19.10.2017 10:00:00 15,3 13,3 8 4 NNW 1010,9 30
19.10.2017 09:00:00 15,5 11,9 4 2 SW 1010,2 30
19.10.2017 08:00:00 15,4 13,9 2 1 N 1009,6 30
19.10.2017 07:00:00 15,6 14,6 8 4 SSW 1009,9 30
19.10.2017 06:00:00 16,3 14,2 2 1 W 1009,4 28
19.10.2017 05:00:00 15,9 15,2 8 4 ENE 1009,5 30
19.10.2017 04:00:00 16,2 15,2 8 4 WNW 1009,9 30
19.10.2017 03:00:00 16,2 14,9 15 8 N 1010,1 30
19.10.2017 02:00:00 16,3 15,1 16 9 NNE 1010,4 30
19.10.2017 01:00:00 16,4 15,4 9 5 NNE 1010,8 30
19.10.2017 00:00:00 16,5 16,0 4 2 N 1010,8 13
18.10.2017 23:00:00 16,7 15,4 18 10 N 1010,4 21
18.10.2017 22:00:00 16,4 15,3 11 6 N 1011,4 30
18.10.2017 21:00:00 15,5 14,8 15 8 N 1011,6 15
18.10.2017 20:00:00 15,0 14,4 18 10 NNE 1011,6 6
18.10.2017 19:00:00 14,8 14,1 18 10 E 1011,3 9
18.10.2017 18:00:00 - - - - - - -
18.10.2017 17:00:00 21,6 18,3 24 13 E 1009,7 22
18.10.2017 16:00:00 22,1 18,7 26 14 ESE 1010,6 23
18.10.2017 15:00:00 23,3 18,3 18 10 ESE 1011,7 30
18.10.2017 14:00:00 22,1 18,2 16 9 ESE 1013,1 30
18.10.2017 13:00:00 23,1 17,8 22 12 SE 1014,2 29
18.10.2017 12:00:00 - - - - - - -
18.10.2017 11:00:00 22,0 18,8 16 9 SE 1015,4 29
18.10.2017 10:00:00 21,4 18,9 11 6 SE 1015,5 19
18.10.2017 09:00:00 19,6 18,6 5 3 NE 1015,5 9
18.10.2017 08:00:00 19,1 18,1 9 5 N 1015,4 9
18.10.2017 07:00:00 19,0 17,8 9 5 NE 1015,8 4,6
18.10.2017 06:00:00 19,0 17,6 8 4 NNE 1016,3 11
18.10.2017 05:00:00 19,0 18,0 9 5 N 1016,9 13
18.10.2017 04:00:00 19,2 17,9 8 4 N 1017,6 13
18.10.2017 03:00:00 19,5 18,3 4 2 N 1018,4 13
18.10.2017 02:00:00 19,7 18,2 8 4 N 1018,8 15
18.10.2017 01:00:00 20,1 18,3 4 2 SSW 1018,9 15
18.10.2017 00:00:00 20,9 16,8 13 7 S 1019,6 30
17.10.2017 23:00:00 19,4 16,6 5 3 S 1020,0 30
17.10.2017 22:00:00 19,3 16,6 5 3 SSE 1019,7 28
17.10.2017 21:00:00 19,8 16,3 5 3 S 1019,9 30
17.10.2017 20:00:00 20,8 16,4 11 6 S 1020,0 30
17.10.2017 19:00:00 21,2 16,5 9 5 S 1020,0 30
17.10.2017 18:00:00 22,2 16,1 13 7 S 1020,2 30
17.10.2017 17:00:00 23,5 15,4 15 8 SSE 1020,4 30
17.10.2017 16:00:00 24,1 15,4 15 8 SSE 1020,8 30
17.10.2017 15:00:00 24,2 15,1 16 9 SSE 1021,4 27
17.10.2017 14:00:00 23,7 15,7 15 8 SE 1022,3 29
17.10.2017 13:00:00 22,8 16,2 11 6 SE 1023,0 30
17.10.2017 12:00:00 24,2 15,9 11 6 ESE 1023,2 30
17.10.2017 11:00:00 22,4 16,0 8 4 NE 1023,7 30
17.10.2017 10:00:00 20,2 14,9 9 5 NNE 1023,9 30
17.10.2017 09:00:00 17,7 14,2 8 4 N 1023,8 27
17.10.2017 08:00:00 17,0 13,6 11 6 N 1023,4 30
17.10.2017 07:00:00 16,2 13,5 11 6 N 1023,5 30
17.10.2017 06:00:00 16,2 13,7 8 4 N 1023,7 12
17.10.2017 05:00:00 16,5 13,7 8 4 N 1023,9 30
17.10.2017 04:00:00 16,6 13,9 11 6 N 1024,4 30
17.10.2017 03:00:00 15,5 13,7 11 6 N 1025,1 30
17.10.2017 02:00:00 15,9 14,0 13 7 N 1025,4 21
17.10.2017 01:00:00 16,9 14,9 11 6 N 1025,7 19
17.10.2017 00:00:00 17,1 15,2 9 5 N 1025,9 16
16.10.2017 23:00:00 17,4 15,2 5 3 N 1026,1 16
16.10.2017 22:00:00 17,7 15,3 5 3 N 1025,8 29
16.10.2017 21:00:00 18,7 15,5 0 0 N 1025,8 27
16.10.2017 20:00:00 20,1 16,2 4 2 ESE 1025,6 26
16.10.2017 19:00:00 21,8 16,3 5 3 SSW 1025,3 30
16.10.2017 18:00:00 23,3 16,9 9 5 SSE 1025,1 30
16.10.2017 17:00:00 22,5 17,4 11 6 SSE 1025,2 30
16.10.2017 16:00:00 23,5 17,4 13 7 SSE 1025,5 30
16.10.2017 15:00:00 25,1 17,2 13 7 SSE 1026,0 28
16.10.2017 14:00:00 24,8 17,2 11 6 SE 1026,6 30
16.10.2017 13:00:00 25,1 17,0 11 6 SE 1027,1 25
16.10.2017 12:00:00 22,7 17,3 0 0 N 1027,5 30
16.10.2017 11:00:00 22,0 17,0 4 2 NNE 1027,6 30
16.10.2017 10:00:00 20,1 16,6 8 4 NNE 1027,2 16
16.10.2017 09:00:00 17,1 15,7 8 4 N 1026,6 19
16.10.2017 08:00:00 16,4 15,2 4 2 N 1026,2 23
16.10.2017 07:00:00 16,4 15,2 5 3 N 1026,0 19
16.10.2017 06:00:00 16,0 15,0 11 6 N 1025,9 17
16.10.2017 05:00:00 15,7 14,8 8 4 N 1026,2 15
16.10.2017 04:00:00 16,5 15,5 8 4 N 1026,3 13
16.10.2017 03:00:00 16,9 15,8 9 5 N 1026,6 7
16.10.2017 02:00:00 17,0 15,6 8 4 NNW 1026,8 3,8
16.10.2017 01:00:00 18,0 16,3 2 1 NNW 1027,2 8

tt = Température de l'air
td = dewpoint
ff = Vitesse du vent
dd = Direction du vent
ppp = reduced air pressure
vv = visibility

stations d'obs. à proximité